Terminal Aerodrome Forecast
Issued by NWS Memphis, TN

Home | Current Version | Previous Version | Text Only | Print | Product List | Glossary On
Versions: 1 2 3 4 5 6 7 8 9 10 11 12 13 14 15 16
000
FTUS44 KMEG 300500
TAFJBR
TAF
KJBR 300523Z 3006/3106 00000KT P6SM SCT060 OVC150
     FM300700 20004KT 6SM -SHRA BKN050
      TEMPO 3010/3014 5SM -TSRA BKN050CB
     FM301600 18010KT P6SM -SHRA VCTS BKN030CB OVC045
     FM310100 16007KT 5SM -SHRA BR VCTS SCT015 BKN025CB=

USA.gov is the U.S. government's official web portal to all federal, state and local government web resources and services.